EHI
0 0 0 0 0 0 0 0 0 0 0 0 0 0 0 0 0 0 0 0 0 1 4 6 7 7 6 4 2 3 5 7 7 6 4 3 3 2 1 0 0 0 0 0 0 0 1 0 0
0 0 0 0 0 0 0 0 0 0 0 0 0 0 0 0 0 0 0 0 1 2 4 6 7 8 7 4 1 1 3 6 7 6 4 3 3 2 1 0 0 0 0 0 0 0 1 1 1
0 0 0 0 0 0 0 0 0 0 0 0 0 0 0 0 0 0 0 0 1 3 4 5 7 10 9 5 1 0 2 4 5 4 3 2 2 2 1 0 0 0 0 0 0 0 0 1 1
0 0 0 0 0 0 0 0 0 0 0 0 0 0 0 0 0 0 0 1 2 3 3 5 7 10 10 7 3 1 2 3 3 2 1 1 1 1 0 0 0 0 0 0 0 0 0 0 1
0 0 0 0 0 0 0 0 0 0 0 0 0 0 0 0 0 0 0 1 3 3 3 5 7 9 8 6 4 1 1 2 1 1 0 0 0 0 0 0 0 0 0 0 0 0 0 0 0
0 0 0 0 0 0 0 0 0 0 0 0 0 0 0 0 0 0 1 2 3 3 4 5 7 7 6 5 4 2 1 1 1 1 0 0 0 0 0 0 0 0 0 0 0 1 1 1 0
0 0 0 0 0 0 0 0 0 0 0 0 0 0 0 0 0 0 1 3 3 3 3 4 5 5 5 4 3 2 2 2 2 1 1 0 0 0 0 0 0 0 0 0 0 1 1 1 0
0 0 0 0 0 0 0 0 0 0 0 0 0 0 0 0 0 0 2 3 3 3 3 3 4 4 3 2 1 1 2 2 1 1 1 0 0 0 0 0 0 0 0 0 0 0 1 1 1
0 0 0 0 0 0 0 0 0 0 0 0 0 0 0 0 0 0 1 3 3 3 3 3 3 3 3 2 1 0 1 1 0 0 0 0 0 0 0 0 0 0 0 0 0 0 1 1 1
0 0 0 0 0 0 0 0 0 0 0 0 0 0 0 0 0 0 1 2 3 3 3 3 3 3 3 3 1 0 0 0 0 0 0 0 0 0 0 0 0 0 0 0 0 0 0 0 0
0 0 0 0 0 0 0 0 0 0 0 0 0 0 0 0 0 0 0 1 2 2 2 2 2 2 3 3 2 1 0 0 0 0 0 0 0 0 0 0 0 0 0 0 0 0 0 0 0
0 0 0 0 0 0 0 0 0 0 0 0 0 0 0 0 0 0 0 0 1 1 1 1 1 1 2 3 3 1 0 0 0 0 0 0 0 0 0 0 0 0 0 0 0 0 0 0 0
0 0 0 0 0 0 0 0 0 0 0 0 0 0 0 0 0 0 0 0 0 0 0 0 0 0 1 2 3 2 1 0 0 0 0 0 0 0 0 0 0 0 0 0 0 0 0 0 0
0 0 0 0 0 0 0 0 0 0 0 0 0 0 0 0 0 0 0 0 0 0 0 0 0 0 0 1 2 2 1 0 0 0 0 0 0 0 0 0 0 0 0 0 0 0 0 0 0
0 0 0 0 0 0 0 0 0 0 0 0 0 0 0 0 0 0 0 0 0 0 0 0 0 0 0 0 1 1 0 0 0 0 0 0 0 0 0 0 0 0 0 0 0 0 0 0 0
0 0 0 0 0 0 0 0 0 0 0 0 0 0 0 0 0 0 0 0 0 0 1 1 0 0 0 0 0 0 0 0 0 0 0 0 0 0 0 0 0 0 0 0 0 0 0 0 0
0 0 0 0 0 0 0 0 0 0 0 0 0 0 0 0 0 0 0 0 0 0 1 1 0 0 0 0 0 0 0 0 0 0 0 0 0 0 0 0 0 0 0 0 0 0 0 0 0
0 0 0 0 0 0 0 0 0 0 0 0 0 0 0 0 0 0 0 0 0 0 1 1 0 0 0 0 0 0 0 0 0 0 0 0 0 0 0 0 0 0 0 0 0 0 0 0 0
0 0 0 0 0 0 0 0 0 0 0 0 0 0 0 0 0 0 0 0 0 0 0 0 0 0 0 0 0 0 0 0 0 0 0 0 0 0 0 0 0 0 0 0 0 0 0 0 0
0 0 0 0 0 0 0 0 0 0 0 0 0 0 0 0 0 0 0 0 0 0 0 0 0 0 0 0 0 0 0 0 0 0 0 0 0 0 0 0 0 0 0 0 0 0 0 0 0
0 0 0 0 0 0 0 0 0 0 0 0 0 0 0 0 0 0 0 0 0 0 0 0 0 0 0 0 0 0 0 0 0 0 0 0 0 0 0 0 0 0 0 0 0 0 0 0 0
0 0 0 0 0 0 0 0 0 0 0 0 0 0 0 0 0 0 0 0 0 0 0 0 0 0 0 0 0 0 0 0 0 0 0 0 0 0 0 0 0 0 0 0 0 0 0 0 0
0 0 0 0 0 0 0 0 0 0 0 0 0 0 0 0 0 0 0 0 0 0 0 0 0 0 0 0 0 0 0 0 0 0 0 0 0 0 0 0 0 0 0 0 0 0 0 0 0
0 0 0 0 0 0 0 0 0 0 0 0 0 0 0 0 0 0 0 0 0 0 0 0 0 0 0 0 0 0 0 0 0 0 0 0 0 0 0 0 0 0 0 0 0 0 0 0 0
0 0 0 0 0 0 0 0 0 0 0 0 0 0 0 0 0 0 0 0 0 0 0 0 0 0 0 0 0 0 0 0 0 0 0 0 0 0 0 0 0 0 0 0 0 0 0 0 0
0 0 0 0 0 0 0 0 0 0 0 0 0 0 0 0 0 0 0 0 0 0 0 0 0 0 0 0 0 0 0 0 0 0 0 0 0 0 0 0 0 0 0 0 0 0 0 0 0
0 0 0 0 0 0 0 0 0 0 0 0 0 0 0 0 0 0 0 0 0 0 0 0 0 0 0 0 0 0 0 0 0 0 0 0 0 0 0 0 0 0 0 0 0 0 0 0 0
0 0 0 0 0 0 0 0 0 0 0 0 0 0 0 0 0 0 0 0 0 0 0 0 0 0 0 0 0 0 0 0 0 0 0 0 0 0 0 0 0 0 0 0 0 0 0 0 0
0 0 0 0 0 0 0 0 0 0 0 0 0 0 0 0 0 0 0 0 0 0 0 0 0 0 0 0 0 0 0 0 0 0 0 0 0 0 0 0 0 0 0 0 0 0 0 0 0
0 0 0 0 0 0 0 0 0 0 0 0 0 0 0 0 0 0 0 0 0 0 0 0 0 0 0 0 0 0 0 0 0 0 0 0 0 0 0 0 0 0 0 0 0 0 0 0 0
Wind_Speed
8 4 2 4 7 5 2 4 2 1 1 0 0 2 4 3 3 2 0 1 1 2 3 4 6 7 7 7 7 7 7 7 7 7 8 8 8 7 7 7 7 7 8 8 8 8 9 8 8
3 2 5 6 5 1 4 3 3 2 1 1 2 2 3 0 0 1 0 1 1 2 2 3 6 7 7 7 7 7 6 6 7 7 7 7 7 7 6 7 7 7 7 7 8 8 8 8 8
2 4 5 5 4 5 4 2 3 1 0 1 2 2 1 0 0 1 1 0 2 2 2 3 5 7 7 7 6 6 6 6 6 6 6 7 6 6 6 6 6 6 6 7 7 7 7 7 7
3 5 6 4 3 5 3 1 1 1 1 2 2 1 1 1 1 1 0 2 3 2 2 2 5 7 7 7 6 5 5 5 5 6 5 6 6 6 6 6 6 6 6 6 6 6 6 6 7
5 5 4 1 4 3 2 2 1 1 0 1 2 1 1 2 2 2 2 3 3 3 2 2 3 5 6 7 6 5 4 5 5 5 5 6 5 5 5 5 5 5 5 5 5 5 5 5 5
5 5 4 3 4 3 2 1 1 1 0 1 2 1 2 2 2 1 2 2 2 3 2 2 3 3 4 5 5 5 4 4 5 5 4 5 5 5 5 4 4 4 4 4 4 4 4 4 4
5 4 4 4 2 3 2 1 2 2 1 2 3 2 2 1 0 1 2 3 2 2 2 2 1 2 2 3 4 4 5 4 4 4 4 4 4 4 4 3 3 3 3 3 3 3 3 3 3
4 5 2 3 3 3 1 0 1 2 2 1 3 4 3 2 1 2 3 3 2 2 2 2 2 1 1 1 2 3 4 4 3 3 3 4 3 3 3 3 2 2 2 2 2 2 2 3 3
3 4 3 5 5 3 0 1 1 1 2 0 0 2 2 3 3 3 2 2 1 1 1 1 1 1 1 1 1 2 2 2 3 2 3 3 2 2 2 2 2 1 1 1 1 1 2 3 3
4 4 6 3 3 2 0 1 1 1 1 1 1 1 1 3 4 4 3 2 1 0 1 0 1 1 1 1 1 1 1 1 1 1 2 2 2 1 2 2 2 2 1 1 1 2 2 2 1
3 4 3 1 1 1 0 1 0 2 2 5 4 3 2 2 3 3 3 2 2 1 1 0 0 1 1 1 1 1 1 1 1 1 2 2 2 1 1 1 1 1 2 1 2 2 1 1 1
2 2 1 1 1 0 1 1 1 3 5 3 3 3 3 3 4 4 4 2 2 1 0 1 1 1 1 1 1 0 1 1 1 1 1 2 1 1 1 1 1 1 1 1 1 1 1 1 1
1 1 1 2 1 1 1 2 2 5 5 2 1 2 3 4 3 2 2 1 1 1 0 1 0 1 1 1 1 1 1 1 1 1 1 1 1 1 1 0 0 0 0 0 0 0 1 1 1
1 1 2 2 2 1 1 2 1 6 2 1 2 3 3 4 3 2 1 1 1 1 1 0 0 1 1 1 1 1 0 1 1 1 0 1 1 1 1 1 0 0 0 0 1 1 1 1 1
0 1 3 2 1 1 1 4 5 6 1 1 2 3 3 3 2 3 3 2 2 1 1 1 0 1 1 1 1 1 0 1 1 1 1 1 1 1 1 1 1 1 1 1 0 0 1 1 1
2 1 2 3 1 1 1 7 4 1 2 3 3 3 3 3 3 3 2 1 1 0 0 0 0 1 1 1 1 1 0 0 1 1 1 1 0 1 1 1 1 1 1 1 1 0 1 1 2
2 1 3 4 1 1 2 8 5 1 2 4 4 4 3 3 3 2 1 1 1 1 1 1 1 1 0 1 1 1 1 0 0 1 1 1 1 1 1 1 1 1 1 1 1 0 1 2 2
3 3 3 5 3 1 4 9 8 4 3 5 5 4 4 4 4 3 2 2 1 1 1 2 1 1 1 2 1 1 1 1 0 1 1 1 1 1 1 1 1 1 0 1 1 1 1 2 2
2 3 4 5 2 2 6 10 10 6 4 5 5 5 4 4 3 2 1 1 1 1 2 2 1 1 1 1 1 1 1 1 1 0 1 0 0 0 1 1 0 0 1 1 1 1 1 1 1
2 3 4 5 2 2 5 10 8 5 5 5 5 5 5 3 2 1 1 1 1 1 1 2 1 0 0 1 1 1 0 1 1 1 1 1 0 0 0 1 1 1 1 1 1 1 1 1 0
3 4 4 4 4 2 4 8 5 4 3 3 3 4 4 5 4 2 2 1 1 1 1 2 1 1 1 2 2 2 2 2 2 2 2 2 1 0 1 1 1 1 1 1 2 2 2 2 2
5 3 3 2 2 3 1 6 7 4 4 4 4 4 4 4 3 2 2 2 2 1 1 2 1 1 1 2 3 3 2 1 1 2 2 2 2 1 1 1 2 2 2 2 2 2 2 2 2
3 1 2 1 1 3 2 3 10 3 4 6 5 5 5 4 3 3 3 3 2 1 1 1 2 1 1 2 2 2 1 0 1 1 2 2 2 2 2 1 1 2 2 2 2 2 2 2 3
2 3 3 3 2 4 5 5 9 5 6 4 4 4 4 3 2 2 1 1 1 1 1 1 2 1 1 2 2 2 1 0 1 2 2 2 2 2 2 2 1 2 2 2 3 2 3 3 3
2 4 3 4 2 7 2 5 11 6 4 4 5 4 3 3 2 2 2 2 1 1 1 1 1 1 1 1 1 0 1 1 1 1 2 2 2 2 2 2 2 2 2 2 2 2 2 3 3
3 5 6 5 5 5 2 8 9 4 3 3 3 2 1 1 2 3 3 2 2 2 1 1 1 0 0 1 0 0 0 1 1 1 1 2 2 2 2 2 2 2 2 2 2 2 3 2 3
3 3 3 4 1 3 6 7 9 2 3 2 1 1 2 2 2 2 2 2 2 2 2 2 2 1 0 0 0 0 0 1 1 1 1 1 2 2 2 2 2 2 2 2 2 2 3 2 3
2 5 4 3 2 5 6 5 5 4 4 3 2 2 3 2 2 1 1 1 2 2 1 1 2 1 1 0 0 0 1 1 1 1 1 2 2 2 3 2 2 2 2 2 2 2 2 3 3
3 2 3 3 3 4 4 8 4 4 3 4 4 3 3 2 2 2 1 1 1 0 0 0 1 1 0 0 0 0 1 1 1 1 2 2 2 2 3 3 2 2 3 3 2 2 3 3 3
3 4 5 4 4 4 3 9 2 1 2 2 2 2 2 2 1 1 1 0 0 0 0 0 0 0 1 0 0 0 1 1 1 2 2 2 2 2 2 2 2 2 2 2 2 3 3 3 4
Wind_Direction
341 349 51 55 56 54 231 246 230 250 248 297 78 119 139 149 165 193 294 64 82 157 179 167 154 149 145 136 128 124 120 116 115 114 115 114 111 107 103 98 92 88 86 83 81 77 73 73 76
332 3 52 60 92 138 258 245 225 224 188 108 61 73 85 112 326 92 62 328 102 141 153 160 152 145 142 139 135 131 126 122 121 118 119 118 116 113 106 101 96 91 87 84 81 77 72 71 73
349 47 78 80 126 185 221 233 220 270 78 101 76 51 110 196 319 201 267 236 102 111 125 152 147 141 138 138 137 135 133 130 128 123 124 125 120 114 106 100 96 92 87 84 81 78 73 73 75
62 48 57 84 204 220 218 242 194 138 50 54 99 58 323 342 273 244 97 96 107 102 93 137 140 146 143 142 140 137 136 136 133 129 128 127 121 116 109 100 96 91 89 88 84 78 74 74 76
57 76 73 60 239 248 252 269 186 144 127 47 110 122 291 338 2 86 103 105 119 110 92 96 130 150 151 151 148 146 143 138 135 133 129 129 126 124 115 105 101 94 92 91 86 81 77 80 77
58 72 106 216 243 263 270 268 150 146 142 93 117 130 256 339 44 64 92 100 117 123 112 111 108 127 155 158 157 156 149 146 138 130 124 127 132 131 125 117 109 101 96 95 88 82 77 79 77
106 111 169 199 230 260 252 195 156 167 183 212 164 143 271 299 4 76 85 86 85 95 102 91 105 96 111 145 157 154 150 147 140 131 125 123 118 124 130 126 123 115 104 96 88 85 78 75 74
121 112 153 202 206 242 275 133 180 171 200 197 151 163 224 233 130 84 80 80 77 73 78 74 70 68 70 120 129 135 140 134 129 120 118 116 113 113 109 100 104 117 117 107 94 89 73 65 60
93 92 198 208 197 225 326 96 353 32 111 27 228 210 239 144 123 99 80 66 72 58 54 76 74 57 59 69 100 101 119 117 111 107 106 100 92 93 95 83 71 96 116 104 86 68 58 50 44
96 162 216 208 193 197 260 186 220 62 23 296 299 337 61 125 142 143 151 171 186 266 287 74 89 86 74 66 70 82 81 81 94 108 112 97 90 80 73 78 67 46 42 56 50 20 37 36 29
136 188 211 229 215 200 264 297 292 145 238 223 218 206 145 147 158 169 183 188 199 212 285 346 136 113 104 82 65 56 77 65 60 95 104 105 94 83 61 60 40 29 32 33 30 22 19 6 357
147 245 236 266 303 263 222 257 288 211 232 244 210 170 167 179 194 197 199 199 190 172 292 256 163 126 112 108 92 71 98 95 69 59 97 118 112 98 96 94 53 41 40 52 37 21 348 342 316
198 265 291 289 309 275 274 245 251 257 263 290 126 159 185 200 221 226 210 203 189 194 235 316 145 121 87 95 99 70 100 127 122 96 78 95 131 143 131 131 106 17 56 103 41 340 313 315 306
210 251 295 310 307 330 243 269 252 266 258 179 180 209 217 216 219 211 217 219 221 210 219 219 224 114 100 109 103 94 115 148 125 107 98 99 125 155 154 165 186 235 244 210 201 239 277 287 291
47 7 329 312 296 296 344 295 235 256 235 234 240 240 241 239 219 214 217 218 219 222 209 174 190 111 101 90 92 89 67 154 140 144 126 129 126 162 166 180 196 222 216 222 222 264 286 292 293
49 40 292 297 334 308 150 265 260 266 193 250 258 255 255 258 241 236 224 209 200 174 209 214 34 81 113 102 86 98 76 139 162 155 136 113 131 136 170 189 219 234 203 186 202 230 279 288 288
38 238 253 290 307 335 195 256 274 280 236 255 257 252 248 263 276 268 244 204 187 166 145 88 46 67 119 107 76 69 93 76 177 151 147 150 151 176 176 229 238 228 207 204 233 264 243 274 285
212 225 251 256 296 293 254 265 281 290 253 255 258 254 236 234 251 257 242 208 179 133 105 80 62 71 88 94 76 52 55 42 40 146 150 149 155 183 182 221 265 233 196 235 231 245 267 257 271
179 204 253 266 289 269 258 270 278 283 272 261 255 247 236 237 250 257 232 165 114 84 85 89 70 56 89 98 105 83 19 11 25 28 71 119 142 134 187 219 251 258 222 240 244 239 264 290 287
200 243 267 287 311 272 281 277 271 260 247 240 237 234 227 225 247 252 184 119 127 144 137 121 118 77 95 101 108 129 117 40 23 14 26 17 13 330 266 217 217 227 260 260 253 242 251 279 290
223 218 240 270 325 331 314 297 276 265 257 256 240 226 217 208 212 208 184 176 155 146 142 126 118 94 67 73 78 66 57 38 18 12 3 351 339 303 260 243 220 220 215 248 250 225 224 244 248
239 223 213 243 310 297 1 290 283 270 280 259 244 231 224 221 210 205 190 181 195 203 150 128 116 96 82 89 94 95 92 77 307 320 326 338 340 319 293 256 235 231 228 238 250 248 236 218 237
212 160 166 199 204 293 271 246 281 293 264 256 240 232 227 215 198 202 203 195 188 164 138 117 95 74 71 84 97 102 88 90 319 329 335 340 345 333 310 281 255 246 244 240 242 252 232 216 222
159 76 57 51 72 272 235 207 275 247 231 247 242 232 222 213 194 197 197 155 134 126 103 91 88 61 60 76 81 99 108 51 341 332 327 327 322 324 318 301 284 266 253 246 242 240 243 231 229
110 99 30 352 336 251 224 216 252 255 239 229 232 234 226 206 192 194 194 177 156 131 112 105 106 56 46 69 67 84 183 190 233 278 291 303 309 310 306 309 297 283 267 260 251 245 251 247 236
193 158 164 204 235 275 267 237 253 270 282 266 239 229 214 207 204 207 205 189 183 181 175 160 154 128 85 100 140 275 254 224 254 267 279 288 290 292 297 295 289 288 287 278 261 249 247 251 249
151 187 171 137 173 273 265 278 297 281 305 291 251 241 247 246 231 218 198 179 182 186 197 194 181 170 189 207 342 5 326 306 291 301 305 297 296 303 312 298 293 295 297 291 274 258 258 254 251
144 147 121 143 190 263 282 270 263 276 267 271 256 247 260 267 261 246 220 208 199 200 209 186 176 184 204 192 193 350 312 299 304 322 306 301 306 313 314 315 309 303 301 296 285 275 265 259 259
142 146 148 154 178 193 269 270 238 237 238 236 249 257 260 270 265 253 241 233 199 127 108 142 141 132 137 216 336 6 323 328 334 324 306 305 311 313 313 309 307 307 307 297 285 291 285 267 267
183 184 161 179 226 198 223 269 298 265 268 247 268 280 284 283 274 253 244 251 95 52 347 208 183 183 230 222 22 324 344 354 343 324 314 316 316 318 316 315 314 314 315 314 303 293 297 284 274